Flag for Germany Weather past 2 weeks in Zerbst/Anhalt, Saxony-Anhalt, Germany

Now
62 °F

Overcast.


Feels Like: 62 °F
Forecast: 56 / 66 °F
Wind: 1 mph from South

Location: Magdeburg

Current Time: Aug 31, 2014 at 12:51:12 AM

Latest Report: Aug 31, 2014 at 12:00 AM


Visibility: 18 mi

Pressure: 29.97 "Hg

Humidity: 84%

Dew point: 57 °F

Location of Zerbst/AnhaltLocation

Historic Weather in Zerbst/Anhalt — Graph

°F

Zerbst/Anhalt temperature yesterday

Maximum temperature yesterday: 69 °F (at 6:00 PM)
Minimum temperature yesterday: 58 °F (at 4:00 AM)
Average temperature yesterday: 63 °F

Past Weeks' High & Low Weather Summary

 TemperatureHumidityPressure
High75 °F (Aug 28, 6:00 PM)97% (Aug 26, 4:00 AM)30.08 "Hg (Aug 26, 4:00 AM)
Low45 °F (Aug 25, 7:00 AM)31% (Aug 28, 4:00 PM)29.62 "Hg (Aug 18, 3:00 PM)
Average59 °F71%29.92 "Hg
* Reported Midnight between Aug 15 and Aug 16 — Midnight between Aug 30 and Aug 31, Zerbst/Anhalt, Weather by CustomWeather, © 2014

Note: Actual official high and low records may vary slightly from our data, if they occured in-between our weather recording intervals... More about our weather records

Advertising

Zerbst/Anhalt weather history for previous 24 hours

 ConditionsComfort  
Time TempWeatherWind HumidityBarometerVisibility
12:00 AM
Aug 31
62 °FOvercast.1 mph84%29.97 "Hg18 mi
10:00 PM
Aug 30
63 °FOvercast.1 mph83%29.98 "Hg22 mi
9:00 PM64 °FOvercast.1 mph79%29.99 "Hg28 mi
8:00 PM66 °FOvercast.2 mph70%29.98 "Hg28 mi
7:00 PM67 °FOvercast.5 mph65%29.98 "Hg37 mi
6:00 PM69 °FOvercast.3 mph62%29.99 "Hg34 mi
4:00 PM68 °FOvercast.2 mph68%30.00 "Hg31 mi
3:00 PM68 °FOvercast.5 mph68%30.01 "Hg28 mi
2:00 PM66 °FOvercast.2 mph73%30.02 "Hg28 mi
1:00 PM67 °FOvercast.5 mph65%30.02 "Hg28 mi
12:00 PM67 °FOvercast.3 mph67%30.03 "Hg28 mi
10:00 AM66 °FPartly sunny.3 mph70%30.02 "Hg19 mi
9:00 AM62 °FPartly sunny.3 mph81%30.02 "Hg12 mi
8:00 AM58 °FPartly sunny.2 mph90%30.01 "Hg11 mi
7:00 AM58 °FPartly sunny.1 mph90%30.01 "Hg11 mi
6:00 AM58 °FOvercast.2 mph90%30.01 "Hg12 mi
4:00 AM58 °FOvercast.1 mph91%30.01 "Hg15 mi
3:00 AM59 °FOvercast.2 mph87%30.01 "Hg22 mi
2:00 AM60 °FPassing clouds.2 mph85%30.01 "Hg31 mi
1:00 AM60 °FOvercast.2 mph85%30.01 "Hg31 mi
12:00 AM62 °FOvercast.2 mph84%30.01 "Hg34 mi
Weather by CustomWeather, © 2014

See weather overviewHow to use our weather pages